Regional Weather Roundup
Issued by NWS

Home | Current Version | Previous Version | Text Only | Print | Product List | Glossary On
Versions: 1 2 3 4 5 6 7 8 9 10 11 12 13 14 15 16 17 18 19 20 21 22 23 24 25 26 27 28 29 30 31 32 33 34 35 36 37 38 39 40 41 42 43 44 45 46 47 48 49 50
000
ASUS43 KOAX 240202
RWRNE

WEATHER ROUNDUP FOR NEBRASKA
NATIONAL WEATHER SERVICE OMAHA NE
900 PM CDT WED APR 23 2014

NOTES: SATELLITE DATA IS BEING USED TO AUGMENT CLOUD COVER ABOVE
       12000 FEET.
       "FAIR" INDICATES FEW OR NO CLOUDS BELOW 12,000 FEET WITH NO
       SIGNIFICANT WEATHER AND/OR OBSTRUCTIONS TO VISIBILITY.

  * THESE STATIONS DO NOT REPORT WEATHER SUCH AS RAIN...SNOW OR FOG.

NEZ001>004-019>022-054>056-240300-
NEBRASKA PANHANDLE

CITY           SKY/WX    TMP DP  RH WIND       PRES   REMARKS
SCOTTSBLUFF    CLOUDY    57  10  15 NW16G24   29.76R
ALLIANCE       CLOUDY    54  31  41 NW8       29.72R
CHADRON        CLOUDY    52  39  61 NE5       29.75R
KIMBALL        CLOUDY    53   4  13 NW16      29.79R
SIDNEY         CLOUDY    56  16  20 NW24G37   29.79R
$$

NEZ057>060-069>072-079>082-240300-
SOUTHWEST NEBRASKA

CITY           SKY/WX    TMP DP  RH WIND       PRES   REMARKS
NORTH PLATTE   PTCLDY    65  24  21 N14       29.59R
IMPERIAL       MOCLDY    60  28  29 NW37G52   29.65R HAZE
LEXINGTON      CLOUDY    65  38  37 E7        29.60R
MCCOOK         CLOUDY    65  41  41 N26G38    29.56R
OGALLALA       MOCLDY    58  27  30 NW24G38   29.70R
$$

NEZ005>010-023>029-035>040-094-240300-
NORTH CENTRAL NEBRASKA

CITY           SKY/WX    TMP DP  RH WIND       PRES   REMARKS
VALENTINE      CLOUDY    57  40  52 NW20G26   29.65R
AINSWORTH      CLOUDY    60  44  55 N24G33    29.66R
BROKEN BOW     CLOUDY    67  23  19 N22G28    29.53R
O`NEILL        CLOUDY    66  47  51 SE9       29.56R THUNDER
ORD            CLOUDY    68  52  56 E14       29.50R
THEDFORD       MOCLDY    62  43  49 N22       29.66R
$$

NEZ041-046>049-061>064-073>077-083>087-240300-
SOUTH CENTRAL NEBRASKA

CITY           SKY/WX    TMP DP  RH WIND       PRES   REMARKS
GRAND ISLAND   TSTM      61  53  75 S9G29     29.55R
AURORA         TSTM      62  54  73 SE5       29.60F
HASTINGS       TSTM      63  54  72 S10G26    29.54R
HEBRON         MOCLDY    75  46  35 S9        29.52R
HOLDREGE       RAIN      61  54  76 W8        29.58R
KEARNEY *      CLOUDY    61  55  82 S12       29.57R
YORK           RAIN      57  54  88 N14G38    29.66R
$$

NEZ011>018-030>034-042>045-240300-
NORTHEAST NEBRASKA

CITY           SKY/WX    TMP DP  RH WIND       PRES   REMARKS
NORFOLK        CLOUDY    56  48  74 E9        29.59R
ALBION         CLOUDY    56  48  74 E14       29.58R
BLAIR          CLOUDY    52  46  79 NE13      29.67S
COLUMBUS *     CLOUDY    57  48  72 SE17G23   29.63R
FREMONT        CLOUDY    54  46  75 E16G24    29.63F
TEKAMAH        LGT RAIN  52  46  80 SE32G41   29.65F
$$

NEZ050>053-065>068-078-088>093-240300-
SOUTHEAST NEBRASKA

CITY           SKY/WX    TMP DP  RH WIND       PRES   REMARKS
LINCOLN        CLOUDY    63  47  55 E12       29.58S
OMAHA EPPLEY   CLOUDY    56  43  61 E8        29.67R
BEATRICE       MOCLDY    72  47  41 SE17      29.54R
FALLS CITY     MOCLDY    67  45  45 SE20G26   29.61S
NEBRASKA CITY  CLOUDY    65  43  44 SE16G24   29.62R
PLATTSMOUTH    CLOUDY    57  44  62 E15       29.62R
$$

NEZ044-045-051>053-067-240300-
OMAHA AREA

CITY           SKY/WX    TMP DP  RH WIND       PRES   REMARKS
OMAHA EPPLEY   CLOUDY    56  43  61 E8        29.67R
BLAIR          CLOUDY    52  46  79 NE13      29.67S
FREMONT        CLOUDY    54  46  75 E16G24    29.63F
MILLARD        CLOUDY    57  43  59 E5        29.65R
OFFUTT AFB     MOCLDY    57  46  67 E9        29.64R
PLATTSMOUTH    CLOUDY    57  44  62 E15       29.62R
WAHOO          MOCLDY    54  46  76 E16       29.60F
$$



USA.gov is the U.S. government's official web portal to all federal, state and local government web resources and services.